Track STARLINK-1180 now! 10-day predictions STARLINK-1180 is classified as:
1 45076U 20006AJ 22146.31294823 .00000867 00000-0 77065-4 0 9997 2 45076 53.0566 356.8375 0001522 60.4420 299.6720 15.06405422128232